TimeEDT,TemperatureF,Dew PointF,Humidity,Sea Level PressureIn,VisibilityMPH,Wind Direction,Wind SpeedMPH,Gust SpeedMPH,PrecipitationIn,Events,Conditions,WindDirDegrees,DateUTC
12:56 AM,48.9,34.0,56,30.31,10.0,Calm,Calm,-,N/A,,Clear,0,2013-10-10 04:56:00
1:56 AM,46.0,35.1,66,30.31,10.0,Calm,Calm,-,N/A,,Clear,0,2013-10-10 05:56:00
2:56 AM,46.0,34.0,63,30.30,10.0,Calm,Calm,-,N/A,,Clear,0,2013-10-10 06:56:00
3:56 AM,45.0,34.0,65,30.29,10.0,SSE,3.5,-,N/A,,Clear,160,2013-10-10 07:56:00
4:56 AM,41.0,34.0,76,30.29,10.0,Calm,Calm,-,N/A,,Clear,0,2013-10-10 08:56:00
5:56 AM,39.9,35.1,83,30.29,10.0,Calm,Calm,-,N/A,,Clear,0,2013-10-10 09:56:00
6:56 AM,39.9,35.1,83,30.30,10.0,Calm,Calm,-,N/A,,Clear,0,2013-10-10 10:56:00
7:56 AM,42.1,35.1,76,30.30,10.0,Calm,Calm,-,N/A,,Clear,0,2013-10-10 11:56:00
8:56 AM,42.1,37.9,85,30.30,10.0,Calm,Calm,-,N/A,,Clear,0,2013-10-10 12:56:00
9:56 AM,46.0,39.9,79,30.31,10.0,Calm,Calm,-,N/A,,Clear,0,2013-10-10 13:56:00
10:56 AM,53.1,39.0,59,30.29,10.0,ESE,3.5,-,N/A,,Clear,120,2013-10-10 14:56:00
11:56 AM,55.9,37.0,49,30.28,10.0,Calm,Calm,-,N/A,,Clear,0,2013-10-10 15:56:00
12:56 PM,62.1,30.0,30,30.26,10.0,NE,3.5,-,N/A,,Clear,40,2013-10-10 16:56:00
1:56 PM,66.9,26.1,21,30.22,10.0,NE,5.8,-,N/A,,Clear,50,2013-10-10 17:56:00
2:56 PM,68.0,24.1,19,30.20,10.0,Variable,3.5,-,N/A,,Clear,0,2013-10-10 18:56:00
3:56 PM,69.1,21.0,16,30.20,10.0,ESE,4.6,-,N/A,,Clear,110,2013-10-10 19:56:00
4:56 PM,66.0,24.1,20,30.21,10.0,ESE,5.8,-,N/A,,Clear,120,2013-10-10 20:56:00
5:56 PM,63.0,24.1,23,30.22,10.0,ESE,4.6,-,N/A,,Clear,120,2013-10-10 21:56:00
6:56 PM,59.0,25.0,27,30.21,10.0,East,4.6,-,N/A,,Clear,90,2013-10-10 22:56:00
7:56 PM,57.0,30.9,37,30.21,10.0,East,5.8,-,N/A,,Clear,100,2013-10-10 23:56:00
8:56 PM,55.0,34.0,45,30.22,10.0,ESE,3.5,-,N/A,,Clear,120,2013-10-11 00:56:00
9:56 PM,54.0,33.1,45,30.21,10.0,Calm,Calm,-,N/A,,Clear,0,2013-10-11 01:56:00
10:56 PM,51.1,36.0,56,30.20,10.0,East,4.6,-,N/A,,Clear,90,2013-10-11 02:56:00
11:56 PM,50.0,36.0,59,30.19,10.0,Calm,Calm,-,N/A,,Clear,0,2013-10-11 03:56:00